This is the latest recevied weather packets stored in our database for station/object W0BJ. If no packets are shown the sender has not sent any weather packets the latest 10 day(s).
| Time | Temp. | Humidity | Pressure | Rain* | Wind** | Luminosity | Snow |
|---|---|---|---|---|---|---|---|
| 1777606699 | 14.44° C | 67% | 1018.5 hPa | 0 mm | - | - | - |
| 1777606273 | 14.44° C | 67% | 1018.4 hPa | 0 mm | - | - | - |
| 1777605798 | 14.44° C | 67% | 1018.4 hPa | 0 mm | - | - | - |
| 1777605672 | 14.44° C | 65% | 1018.6 hPa | 0 mm | - | - | - |
| 1777605072 | 14.44° C | 64% | 1018.5 hPa | 0 mm | - | - | - |
| 1777604898 | 14.44° C | 64% | 1018.4 hPa | 0 mm | - | - | - |
| 1777604471 | 14.44° C | 64% | 1018.4 hPa | 0 mm | - | - | - |
| 1777603999 | 14.44° C | 63% | 1018.3 hPa | 0 mm | - | - | - |
| 1777603873 | 14.44° C | 63% | 1018.3 hPa | 0 mm | - | - | - |
| 1777603272 | 15° C | 62% | 1018.2 hPa | 0 mm | - | - | - |
| 1777603098 | 15° C | 61% | 1018.3 hPa | 0 mm | - | - | - |
| 1777602672 | 15° C | 58% | 1018.2 hPa | 0 mm | - | - | - |
| 1777602197 | 15° C | 59% | 1018 hPa | 0 mm | - | - | - |
| 1777602071 | 15° C | 57% | 1018 hPa | 0 mm | - | - | - |
| 1777601473 | 15.56° C | 56% | 1017.8 hPa | 0 mm | - | - | - |
| 1777601299 | 15.56° C | 56% | 1017.7 hPa | 0 mm | - | - | - |
| 1777600872 | 15.56° C | 53% | 1017.9 hPa | 0 mm | - | - | - |
| 1777600399 | 15.56° C | 52% | 1017.9 hPa | 0 mm | - | - | - |
| 1777600273 | 16.11° C | 51% | 1017.9 hPa | 0 mm | - | - | - |
| 1777599673 | 16.11° C | 51% | 1017.8 hPa | 0 mm | - | - | - |
| 1777599498 | 16.11° C | 50% | 1017.7 hPa | 0 mm | - | - | - |
| 1777599072 | 16.67° C | 46% | 1017.6 hPa | 0 mm | - | - | - |
| 1777598598 | 16.67° C | 45% | 1017.1 hPa | 0 mm | - | - | - |
| 1777598472 | 16.67° C | 45% | 1017.1 hPa | 0 mm | - | - | - |
| 1777597871 | 16.67° C | 44% | 1017.1 hPa | 0 mm | - | - | - |
* Rain latest hour (hover to see other rain measurements)
** Current wind speed in m/s (hover to see current wind gust speed)